User: anonymous   Login
Location: Go�ngahuizen
(53.0821°N, 5.8849°E)
Time: 10:28:25
(UTC+00:00)
Language:

Cosmos 1766 Rocket - Orbit

View from above orbital plane
View from above orbital plane
View from above satellite
View from above satellite

Ground track
Ground track

The orbit data is extracted from the following two-line orbital elements,

1 16882U 86055B   20184.79086074 +.00000042 +00000-0 +21734-5 0  9993
2 16882 082.5219 272.8266 0019443 347.6754 130.4694 14.83228937811569
Epoch (UTC): 02 July 2020 18:58:50
Eccentricity: 0.0019443
inclination: 82.5219°
perigee height: 605 km
apogee height: 633 km
right ascension of ascending node: 272.8266°
argument of perigee: 347.6754°
revolutions per day: 14.83228937
mean anomaly at epoch: 130.4694°
orbit number at epoch: 81156

The dashed part of the orbit path shows where the satellite is in the earth's shadow,  

DLR